Tracking 29892 objects as of 21-Nov-2024
HD Live streaming from Space Station
objects crossing your sky now

CZ-6A DEB

Track CZ-6A DEB now!
10-day predictions


NORAD ID: 54581
Int'l Code: 2022-151MH
Perigee: 689.9 km
Apogee: 858.0 km
Inclination: 98.7 °
Period: 100.2 minutes
Semi major axis: 7144 km
RCS: Unknown
Launch date: November 11, 2022
Source: People's Republic of China (PRC)
Launch site: Taiyaun Space Center, China (TSC)

Note: This is SATELLITE DEBRIS
Your satellite tracking list
Your tracking list is empty




NASA's NSSDC Master Catalog

Two Line Element Set (TLE):
1 54581U 22151MH  24325.51104296  .00001190  00000-0  38218-3 0  9994
2 54581  98.6692 346.9416 0117602 271.7424  87.0296 14.37483105105466
Source of the keplerian elements: AFSPC